C/2016 Q2 ( PanSTARRS )

Japanese version
Home page
Updated on November 9, 2019

---------------------------------------------------------------------

* Profile

Discovery Date August 26, 2016
Magnitude 21.6 mag
Discoverer Pan-STARRS 1 telescope (Haleakala)

* Pictures

* Orbital Elements

Epoch 2021 May 26.0 TT = JDT 2459360.5
T 2021 May 11.89278 TT                                  Williams
q   7.0818551            (2000.0)            P               Q
z  -0.0000963      Peri.   84.52924     -0.12667284     -0.80693035
 +/-0.0000017      Node   322.29574     -0.66688127     +0.49981674
e   1.0006823      Incl.  109.38826     +0.73431830     +0.31471674
From 129 observations 2016 Aug. 26-2019 Oct. 29, mean residual 0".5.

* Finding Charts

* Magnitudes Graph

        m1 = 9.5 + 5 log d + 5.0 log r

---------------------------------------------------------------------

The orbital elements are published on M.P.E.C. 2019-V116.
The charts are made with StellaNavigator Ver.10 (AstroArts).
The magnitudes graphs are made with Comet for Windows.

---------------------------------------------------------------------

Copyright(C) Seiichi Yoshida (comet@aerith.net). All rights reserved.